Simultaneous Nadir Overpasses (SNOs) Predictions

Prediction of SNOs between FY3D and AQUA Satellite Orbit:

Table of predicted SNOs for the next 14.0 days since TLE Epoch: 6/7/2025
Index Date (FY3D) Time (FY3D) Lat,Lon (FY3D) SZA (FY3D ) Date (AQUA) Time (AQUA) Lat,Lon (AQUA) SZA (AQUA ) Distance(km) Time Diff (sec)
1 06/09/2025 08:05:05 79.48, 47.31 56.68 06/09/2025 08:05:24 79.48, 47.18 56.69 2.71 19
2 06/09/2025 08:55:43 -79.26,-143.52 123.61 06/09/2025 08:54:36 -79.27,-143.63 123.59 2.54 67
3 06/11/2025 17:35:50 79.54, -95.89 56.59 06/11/2025 17:36:28 79.55, -95.99 56.60 2.17 38
4 06/11/2025 18:26:28 -79.32, 73.33 123.70 06/11/2025 18:25:40 -79.33, 73.24 123.68 2.06 48
5 06/14/2025 03:06:36 79.64, 120.59 56.59 06/14/2025 03:07:32 79.63, 120.68 56.57 1.80 56
6 06/14/2025 03:57:14 -79.42, -70.12 123.70 06/14/2025 03:56:44 -79.42, -70.04 123.71 1.85 30
7 06/16/2025 12:37:54 80.52, -33.10 57.98 06/16/2025 12:39:07 80.71, -32.45 58.08 23.36 73
8 06/16/2025 13:27:59 -79.49, 146.66 123.71 06/16/2025 13:27:47 -79.48, 146.79 123.72 2.73 12



Historial Predications of SNOs between FY3D and AQUA
